紫金山-アトラス彗星

C/2023 A3 ( Tsuchinshan-ATLAS )

English version
Home page
Updated on October 1, 2025

---------------------------------------------------------------------

・ プロフィール

発見日 2023年1月9日、2月22日
発見光度 18.7等、18.0等
発見者 Purple Mountain Observatory's XuYi Station, Asteroid Terrestrial-Impact Last Alert System (ATLAS) search program

・ 写真集

・ 軌道要素

Epoch 2025 May 5.0 TT = JDT 2460800.5
T 2024 Sept. 27.74297 TT                                Pike
q   0.3914903            (2000.0)            P               Q
z  -0.0002933      Peri.  308.50433     +0.36147636     +0.90078875
 +/-0.0000003      Node    21.57018     +0.91853355     -0.29972257
e   1.0001148      Incl.  139.11135     -0.16009673     +0.31423878
From 7868 observations 2022 Apr. 9-2025 Feb. 22, mean residual 1".1.

・ 星図

・ 光度変化

        m1 = -17.0 + 5 logΔ + 35   log r         [    ,-575]  (              〜2023年 3月 2日)
        m1 =   4.5 + 5 logΔ + 10.0 log r         [-575,-247]  (2023年 3月 2日〜2024年 1月24日)
        m1 =   6.0 + 5 logΔ +  7.5 log r         [-247,   0]  (2024年 1月24日〜2024年 9月27日)
        m1 =  23.5 + 5 logΔ + 60   log r(t - 9)  [   0,  19]  (2024年 9月27日〜2024年10月16日)
        m1 =   6.0 + 5 logΔ +  7.5 log r         [  19, 130]  (2024年10月16日〜2025年 2月 4日)
        m1 =   3.0 + 5 logΔ + 15.0 log r         [ 130,    ]  (2025年 2月 4日〜              )

---------------------------------------------------------------------

軌道要素はM.P.E.C. 2025-D254に掲載されたものです。
星図はステラナビゲータ Ver.11 (アストロアーツ) で作成したものです。
光度グラフはComet for Windowsで作成したものです。

---------------------------------------------------------------------

Copyright(C) Seiichi Yoshida (comet@aerith.net). All rights reserved.